SCOUT A DEB, 3214

Orbit data source: Space-Track

SCOUT A DEB, 3214 is space debris in LEO originally from a launch on Sat, 02 Mar 1968 UTC launched from the Air Force Western Test Range (AFWTR). Debris objects in space refer to the collection of defunct objects orbiting the Earth. Examples of debris include non-operational satellites, rocket bodies, and fragments generated from explosions, collisions, or faulty payload assembly.

Loading next visibility...
Identifier
3214, 1968-012D
Orbit
LEO
Last TLE update
16 hours ago
Origin
Manufacturer
Unknown
Mission
Spacecraft
Bus & Motor
Unknown
Mass
Unknown
Launch date (UTC)
1968-03-02 (57 years ago)
Launch vehicle
Unknown
Launch site
Air Force Western Test Range (AFWTR)
Object type
Payload
Rocket body
Debris
Shape & HBR
Unknown
Radar Cross Section
Small (<0.1 m²)

Expand to show TLE details & history

TLE from 16 hours ago
0 SCOUT A DEB
1 03214U 68012D   25191.71487263  .00000149  00000-0  27232-3 0  9996
2 03214  89.8340 109.4334 0187308 129.4057 295.5364 13.29171293539170
Epoch: 2025-07-10T17:09Z
TLE epoch observation values (Epoch: 2025-07-10T17:09:24.995Z)
Latitude
63.07074°
Longitude
-76.47281°
Altitude
1,102.188 km
Speed
7.336 km/s
True Right ascension
07h 19m 02s
True Declination
62° 56' 17"
Sunlit
Object was in daylight at epoch
Visualization orbit readout
Latitude
78.09599°
Longitude
-76.0255°
Altitude
1,069.984 km
Speed
7.369 km/s
Apparent Right ascension
09h 13m 08s
Apparent Declination
27° 15' 00"
Sunlit
Object is in daylight
Visualization observer readout
Local Sidereal Time
21:47:10
Azimuth
8.181° NNE
Elevation
-22.368°
Doppler factor
1
Orbital elements
Apogee altitude
1,287.921 km
Perigee altitude
1,006.018 km
Semi-major axis
7,525.106 km
Eccentricity
0.01873
Inclination
89.834°
RAAN
109.4334°
Arg. of periapsis
129.4057°
True anomaly
Unknown
Mean anomaly
295.5364°
Eccentric anomaly
Unknown
Mean motion
3.32487 °/min
Orbital period
108.28 mins
BSTAR
0.00027232
Loading maneuver chart data...
Loading SW <> Apogee altitude chart data...
Loading historical data...
Loading historical data...
Loading historical data...
Loading historical data...
Loading historical data...
Loading historical data...
Loading historical data...

SCOUT A DEB Visibility forecast

Observer location: undefined°, undefined°

Span
Click to sort rows by Start time (UTC) header in descending order
Start Az.
Max El. time (UTC)
Max El. Az.
Max El.
End time (UTC)
End Az.
12 mins2025-07-11 18:14:27.787Z150.07° SSE2025-07-11 18:20:27.787Z78.675° E36.578°2025-07-11 18:26:27.787Z10.836° NNE
9 mins2025-07-11 20:04:27.787Z230.368° WSW2025-07-11 20:08:27.787Z274.427° WNW25.347°2025-07-11 20:13:27.787Z329.713° NNW
8 mins2025-07-12 05:36:27.787Z42.48° NE2025-07-12 05:39:27.787Z77.79° E21.064°2025-07-12 05:44:27.787Z130.682° SE
10 mins2025-07-12 07:23:27.787Z346.902° N2025-07-12 07:28:27.787Z267.662° W37.455°2025-07-12 07:33:27.787Z206.918° SW
|